User: anonymous   Login
Location: Seattle
(47.6064°N, 122.3308°W)
Time: 13:44:36
(UTC-08:00)
Language:

CZ-6A DEB - Orbit

View from above orbital plane
View from above orbital plane
View from above satellite
View from above satellite

Ground track
Ground track

The orbit data is extracted from the following two-line orbital elements,

1 55522U 22151XU  23333.45734689  .00011362  00000-0  34797-2 0  9995
2 55522  98.6649 345.0193 0104246 258.2083 100.7395 14.38788191 49506
Epoch (UTC): 29 November 2023 10:58:34
Eccentricity: 0.0104246
inclination: 98.6649°
perigee height: 688 km
apogee height: 837 km
right ascension of ascending node: 345.0193°
argument of perigee: 258.2083°
revolutions per day: 14.38788191
mean anomaly at epoch: 100.7395°
orbit number at epoch: 4950

The dashed part of the orbit path shows where the satellite is in the earth's shadow,  

DLR